Weather in Bishtyubinka

Russia / Astrakhan Oblast     46°20′15″N   47°57′36″E
temp.,
°C
wind,
m/s
gust,
m/s
humid.,
%
clouds,
%
prec.,
mm/h
press.,
hPa
HPBL,
m
5 august, thu
thu501:00+29w2327100 0.0 101162
04:00+28n2443100 0.0 101198
07:00+29nne5104489 0.0 1012407
10:00+34nne6732100 0.0 10121086
13:00+37nne65245 0.0 10111951
16:00+38nne532199 0.0 10102743
19:00+30se5945100 1.0 1012359
22:00+28n4647100 1.3 1012129
6 august, fri
fri601:00+26nne511307 0.0 1012259
04:00+25nne410325 0.1 1012214
07:00+27ne49326 0.0 1012309
10:00+33ne55215 0.0 10121225
13:00+37ne43170 0.0 10112135
16:00+38ne54150 0.0 10093134
19:00+34ese55220 0.0 1009810
22:00+27ese33360 0.0 101059
7 august, sat
sat701:00+26ene46370 0.0 1010103
04:00+25ene513300 0.0 1010299
07:00+27ene614250 0.0 1010405
10:00+35ese810182 0.0 10101342
13:00+38ese88160 0.0 10091891
16:00+38ese881634 0.0 10081610
19:00+35e710190 0.0 1008746
22:00+28e614270 0.0 1009288
8 august, sun
sun801:00+27e616356 0.0 1009336
04:00+27e5154176 0.0 1009328
07:00+29ese6154716 0.0 1009426
10:00+39se9131650 0.0 10091416
13:00+40se911166 0.0 10081503
16:00+40se891683 0.0 10081378
19:00+36se68227 0.0 1008651
22:00+28se47499 0.0 1009127
9 august, mon
mon901:00+27s344967 0.0 100954
04:00+26s225681 0.0 100928
07:00+29w124814 0.0 100996
10:00+36nnw45275 0.0 1009798
13:00+40nw54198 0.0 10092078
16:00+41nw33175 0.0 10082884
19:00+39w22190 0.0 1008881
22:00+30ssw474849 0.0 1009148